Location: Unspecified
(49.2170°N, 0.0000°E)
Time: 13:49:27
(UTC+00:00)

Vanguard 3 - Pass Details

Date: 03 July 2019
Orbit: 508 x 3263 km, 33.3° (Epoch: 24 August)

Event Time Altitude Azimuth Distance (km) Brightness Sun altitude
Rises 04:54:26 0° 183° (S) 6,967 11.6 6.6°
Reaches altitude 10° 05:02:26 10° 164° (SSE) 6,166 11.5 7.8°
Maximum altitude 05:11:24 15° 137° (SE) 5,718 11.8 9.1°
Drops below altitude 10° 05:19:58 10° 109° (ESE) 5,900 12.4 10.4°
Sets 05:27:05 0° 90° (E) 6,518 13.2 11.5°
